This is the latest recevied weather packets stored in our database for station/object KM4KBD. If no packets are shown the sender has not sent any weather packets the latest 10 day(s).
| Time | Temp. | Humidity | Pressure | Rain* | Wind** | Luminosity | Snow |
|---|---|---|---|---|---|---|---|
| 1777615275 | 5.56° C | 94% | 1021.8 hPa | 0 mm | - | 0 W/m² | - |
| 1777614973 | 5.56° C | 94% | 1021.7 hPa | 0 mm | - | 0 W/m² | - |
| 1777614670 | 5° C | 93% | 1021.8 hPa | 0 mm | - | 0 W/m² | - |
| 1777614366 | 5.56° C | 93% | 1021.9 hPa | 0 mm | - | 0 W/m² | - |
| 1777614061 | 5.56° C | 93% | 1021.5 hPa | 0 mm | - | 0 W/m² | - |
| 1777613756 | 5.56° C | 93% | 1021.7 hPa | 0 mm | - | 0 W/m² | - |
| 1777613456 | 5.56° C | 92% | 1021.8 hPa | 0 mm | - | 0 W/m² | - |
| 1777613151 | 6.11° C | 90% | 1022 hPa | 0 mm | - | 0 W/m² | - |
| 1777612848 | 6.11° C | 91% | 1021.9 hPa | 0 mm | - | 0 W/m² | - |
| 1777612544 | 6.11° C | 91% | 1021.9 hPa | 0 mm | - | 0 W/m² | - |
| 1777612239 | 6.11° C | 91% | 1021.8 hPa | 0 mm | - | 0 W/m² | - |
| 1777611934 | 6.11° C | 90% | 1021.8 hPa | 0 mm | - | 0 W/m² | - |
| 1777611630 | 6.11° C | 89% | 1021.8 hPa | 0 mm | - | 0 W/m² | - |
| 1777611326 | 6.11° C | 88% | 1021.9 hPa | 0 mm | - | 0 W/m² | - |
| 1777611024 | 6.11° C | 87% | 1021.7 hPa | 0 mm | - | 0 W/m² | - |
| 1777610720 | 6.11° C | 87% | 1021.7 hPa | 0 mm | - | 0 W/m² | - |
| 1777610419 | 6.11° C | 89% | 1021.8 hPa | 0 mm | - | 0 W/m² | - |
| 1777610115 | 6.67° C | 84% | 1021.8 hPa | 0 mm | - | 0 W/m² | - |
| 1777609812 | 6.11° C | 88% | 1021.9 hPa | 0 mm | - | 0 W/m² | - |
| 1777609508 | 6.11° C | 88% | 1021.7 hPa | 0 mm | - | 0 W/m² | - |
| 1777609206 | 6.11° C | 88% | 1022 hPa | 0 mm | - | 0 W/m² | - |
| 1777608903 | 6.11° C | 88% | 1021.9 hPa | 0 mm | - | 0 W/m² | - |
| 1777608599 | 6.67° C | 86% | 1021.9 hPa | 0 mm | - | 0 W/m² | - |
| 1777608297 | 6.67° C | 85% | 1021.9 hPa | 0 mm | - | 0 W/m² | - |
| 1777607995 | 6.67° C | 85% | 1022 hPa | 0 mm | - | 0 W/m² | - |
* Rain latest hour (hover to see other rain measurements)
** Current wind speed in m/s (hover to see current wind gust speed)